Regional Weather Roundup
Issued by NWS

Home | Current Version | Previous Version | Graphics & Text | Print | Product List | Glossary On
Versions: 1 2 3 4 5 6 7 8 9 10 11 12 13 14 15 16 17 18 19 20 21 22 23 24 25 26 27 28 29 30 31 32 33 34 35 36 37 38 39 40 41 42 43 44 45 46 47 48 49 50
000
ASUS43 KBIS 232210
RWRND
NORTH DAKOTA REGIONAL WEATHER ROUNDUP
NATIONAL WEATHER SERVICE EASTERN NORTH DAKOTA/GRAND FORKS ND
500 PM CDT TUE MAY 23 2017

  NOTE: "FAIR" INDICATES FEW OR NO CLOUDS BELOW 12,000 FEET WITH NO
  SIGNIFICANT WEATHER AND/OR OBSTRUCTIONS TO VISIBILITY.

NDZ001>003-009>011-017-232300-
...NORTHWEST NORTH DAKOTA...

CITY           SKY/WX    TMP DP  RH WIND       PRES   REMARKS
WILLISTON      FAIR      72  29  20 VRB6      30.03F
MINOT          FAIR      69  32  25 NE13G20   30.01F
MINOT AFB      FAIR      68  31  26 CALM      30.01F
$$

NDZ018>021-031>035-040>046-232300-
...SOUTHWEST NORTH DAKOTA...

CITY           SKY/WX    TMP DP  RH WIND       PRES   REMARKS
BISMARCK       PTSUNNY   65  34  31 N22       30.02F
DICKINSON      FAIR      63  31  30 VRB3      30.03F
GARRISON         N/A     67  34  29 NE9       30.02F
HETTINGER      FAIR      65  32  29 N14G22    30.06F
$$

NDZ004>008-012>016-024-026-027-054-232300-
...NORTHEAST NORTH DAKOTA...

CITY           SKY/WX    TMP DP  RH WIND       PRES   REMARKS
GRAND FORKS    PTSUNNY   62  43  49 NE13      29.97S
GRAND FORKS AF CLOUDY    61  41  48 NE16      29.98F
DEVILS LAKE    PTSUNNY   61  37  41 NE13G24   30.02S
$$

NDZ022-023-025-028>030-036>039-047>053-232300-
...SOUTHEAST NORTH DAKOTA...

CITY           SKY/WX    TMP DP  RH WIND       PRES   REMARKS
JAMESTOWN      CLOUDY    57  42  57 N13G24    29.99S
FARGO          PTSUNNY   59  45  59 NE14      29.94F
WAHPETON       FAIR      57  45  62 N17G24    29.92F
$$



USA.gov is the U.S. government's official web portal to all federal, state and local government web resources and services.